Location: Celina Division
(33.3022°N, 96.7580°W)
Time: 09:32:49
(UTC+00:00)

Tiangong - Pass Details

Date: 29 November 2022
Orbit: 383 x 386 km, 41.5° (Epoch: 28 January)

Event Time Altitude Azimuth Distance (km) Brightness Sun altitude
Rises 00:58:56 0° 248° (WSW) 2,252 3.3 -20.4°
Reaches altitude 10° 01:01:00 10° 252° (WSW) 1,403 1.9 -20.8°
Enters shadow 01:03:42 55° 289° (WNW) 469 -1.5 -21.4°
